Showing default

INSAT 3A, 27714

Orbit data source: Space-Track

INSAT 3A, 27714 is a payload satellite owned by ISRO (IN) in GEO that was launched on Wed, 09 Apr 2003 UTC via an ARIANE 5G launch vehicle from the French Guiana (FRGUI). Payload-class satellites include a variety of spacecraft equipped with specific instruments for various scientific and technological missions. These include communications satellites like Starlink; space stations such as the ISS; scientific satellites like the Hubble; Earth observation satellites from companies like Planet Labs, Umbra, and HawkEye 360; GPS; miniature CubeSats for education and research; and military/defense satellites.

Loading next visibility...
Identifier
27714, 2003-013A
Orbit
GEO
Country
Flag of ININ / IND
Related business
Manufacturer
ISRO
Mission
Non-operational Civil Communications
Bus & Motor
I2K, ISRO LAM
Mass
2,950 kg wet, 1,350 kg dry
Launch date (UTC)
2003-04-09 (23 years ago)
Launch vehicle
ARIANE 5G
Launch site
French Guiana (FRGUI)
Object type
Payload
Rocket body
Debris
Shape & HBR
Box + 1 Pan + 1 Arm, 12.2 m
Radar Cross Section
16.074 m², Large (>1 m²)

Expand to show TLE details & history
Last TLE update: 1 day ago

TLE from 1 day ago
0 INSAT 3A
1 27714U 03013A   25340.19838829 -.00000211  00000-0  00000-0 0  9995
2 27714   8.3660  63.1094 0006215 275.2995  96.0262  0.99800663 82806
Epoch: 2025-12-06T04:45Z
TLE epoch observation values (Epoch: 2025-12-06T04:45:40.748Z)
Latitude
1.67259°
Longitude
-72.26841°
Altitude
35,921.301 km
Speed
3.07 km/s
True Right ascension
04h 57m 31s
True Declination
1° 40' 15"
Sunlit
Object was in daylight at epoch
Visualization orbit readout
Latitude
Unknown
Longitude
Unknown
Altitude
Unknown
Speed
Unknown
Apparent Right ascension
Unknown
Apparent Declination
Unknown
Sunlit
N/A
Visualization observer readout
Local Sidereal Time
07:37:04
Azimuth
Unknown
Elevation
Unknown
Doppler factor
Unknown
Orbital elements
Apogee altitude
35,946.509 km
Perigee altitude
35,893.933 km
Semi-major axis
42,298.358 km
Eccentricity
0.00062
Inclination
8.366°
RAAN
63.1094°
Arg. of periapsis
275.2995°
True anomaly
96.09702°
Mean anomaly
96.0262°
Eccentric anomaly
96.06161°
Mean motion
0.24949 °/min
Orbital period
1,442.93 mins
BSTAR
0
Loading maneuver chart data...
Computing Atmospheric mass density...
Loading historical data...
Loading historical data...
Loading historical data...
Loading historical data...
Loading historical data...
Loading historical data...
Loading historical data...
Other satellites on launch #13 in the year 2003 (2003-04-09 UTC)

Documentation

Showing up to 5 results
|